Lahore, Pakistan

6:38 PM PKT on July 21, 2017 (GMT +0500)
Lahore International

Weather History for OPLA - July, 2013

Change the Weather History Date:

Thursday, July 18, 2013

  Actual Average Record
Temperature  
Mean Temperature 86 °F -  
Max Temperature 95 °F 93 °F 107 °F (2012)
Min Temperature 77 °F 78 °F 71 °F (2007)
Cooling Degree Days 21    
Growing Degree Days 36 (Base 50)    
Moisture  
Dew Point 76 °F    
Average Humidity 72    
Maximum Humidity 89    
Minimum Humidity 56    
Precipitation  
Precipitation 0.00 in - - ()
Sea Level Pressure  
Sea Level Pressure 29.43 in    
Wind  
Wind Speed 4 mph ()    
Max Wind Speed 7 mph    
Max Gust Speed -    
Visibility 2.9 miles    
Events Rain , Thunderstorm    
Averages and records for this station are not official NWS values.
T = Trace of Precipitation, MM = Missing Value Source: Averaged Metar Reports

Daily Weather History Graph

Daily Weather History Graph

Search for Another Location

Airport or City:

Trip Planner

Search our weather history database for the weather conditions in past years. The results will help you decide how hot, cold, wet, or windy it might be!

Date:

Astronomy

Jul. 18, 2013 Rise Set
Actual Time 5:09 AM PKT 7:07 PM PKT
Civil Twilight 4:42 AM PKT 7:34 PM PKT
Nautical Twilight 4:09 AM PKT 8:07 PM PKT
Astronomical Twilight 3:34 AM PKT 8:42 PM PKT
Moon 2:36 PM PKT (7/18) 12:34 AM PKT (7/18)
Length of Visible Light 14h 52m
Length of Day
13h 57m
Waxing Gibbous, 73% of the Moon is Illuminated
Jul 18
Waxing Gibbous
Jul 22
Full
Jul 29
Last Quarter
Aug 7
New
Aug 14
First Quarter

Hourly Weather History & Observations

Time (PKT) Temp. Heat Index Dew Point Humidity Pressure Visibility Wind Dir Wind Speed Gust Speed Precip Events Conditions
12:29 AM 84.2 °F 94.1 °F 77.0 °F 79% 29.47 in 2.5 mi SSE 5.8 mph - N/A   Smoke
12:59 AM 84.2 °F 94.1 °F 77.0 °F 79% 29.50 in 2.5 mi SE 5.8 mph - N/A   Smoke
1:29 AM 84.2 °F 94.1 °F 77.0 °F 79% 29.50 in 2.5 mi SE 5.8 mph - N/A   Smoke
1:59 AM 82.4 °F 89.5 °F 75.2 °F 79% 29.47 in 2.5 mi SE 4.6 mph - N/A   Smoke
2:29 AM 82.4 °F 89.5 °F 75.2 °F 79% 29.47 in 2.5 mi SSE 4.6 mph - N/A   Smoke
2:59 AM 82.4 °F 89.5 °F 75.2 °F 79% 29.47 in 2.5 mi Calm Calm - N/A Thunderstorm Thunderstorm
3:25 AM 82.4 °F 89.5 °F 75.2 °F 79% 29.47 in 2.5 mi SSE 4.6 mph - N/A Thunderstorm Thunderstorm
3:59 AM 82.4 °F 89.5 °F 75.2 °F 79% 29.47 in 2.5 mi WSW 3.5 mph - N/A Rain , Thunderstorm Thunderstorms and Rain
4:29 AM 82.4 °F 89.5 °F 75.2 °F 79% 29.47 in 2.5 mi ESE 6.9 mph - N/A Thunderstorm Thunderstorm
4:59 AM 80.6 °F 85.4 °F 73.4 °F 79% 29.47 in 2.5 mi NNE 4.6 mph - N/A Thunderstorm Thunderstorm
6:55 AM 77.0 °F - 73.4 °F 89% 29.47 in 2.5 mi SSW 4.6 mph - N/A Rain , Thunderstorm Light Thunderstorms and Rain
7:25 AM 77.0 °F - 73.4 °F 89% 29.47 in 2.5 mi SE 5.8 mph - N/A Rain , Thunderstorm Light Thunderstorms and Rain
7:53 AM 77.0 °F - 73.4 °F 89% 29.47 in 2.5 mi ESE 3.5 mph - N/A   Smoke
7:55 AM 78.8 °F - 73.4 °F 83% 29.50 in 2.5 mi SE 3.5 mph - N/A   Smoke
8:25 AM 78.8 °F - 73.4 °F 83% 29.50 in 2.5 mi Calm Calm - N/A   Smoke
8:55 AM 80.6 °F 86.2 °F 75.2 °F 84% 29.47 in 3.1 mi Calm Calm - N/A   Smoke
9:25 AM 82.4 °F 89.5 °F 75.2 °F 79% 29.47 in 3.1 mi ENE 3.5 mph - N/A   Smoke
9:55 AM 82.4 °F 89.5 °F 75.2 °F 79% 29.47 in 3.1 mi East 6.9 mph - N/A   Smoke
10:25 AM 86.0 °F 95.1 °F 75.2 °F 70% 29.47 in 3.1 mi East 5.8 mph - N/A   Smoke
10:55 AM 87.8 °F 99.7 °F 77.0 °F 70% 29.47 in 3.1 mi East 5.8 mph - N/A   Smoke
11:25 AM 89.6 °F 102.2 °F 77.0 °F 66% 29.47 in 3.1 mi East 3.5 mph - N/A   Smoke
11:55 AM 89.6 °F 99.8 °F 75.2 °F 62% 29.47 in 3.1 mi East 5.8 mph - N/A   Smoke
12:25 PM 89.6 °F 99.8 °F 75.2 °F 62% 29.47 in 3.1 mi ENE 3.5 mph - N/A   Smoke
12:55 PM 89.6 °F 102.2 °F 77.0 °F 66% 29.44 in 3.1 mi ESE 4.6 mph - N/A   Smoke
1:25 PM 91.4 °F 105.1 °F 77.0 °F 63% 29.44 in 3.1 mi SE 3.5 mph - N/A   Smoke
1:55 PM 93.2 °F 107.2 °F 77.0 °F 59% 29.42 in 3.1 mi SE 4.6 mph - N/A   Smoke
2:25 PM 95.0 °F 109.7 °F 77.0 °F 56% 29.42 in 3.1 mi SSE 3.5 mph - N/A   Smoke
2:55 PM 95.0 °F 109.7 °F 77.0 °F 56% 29.42 in 3.1 mi SSE 4.6 mph - N/A   Smoke
3:25 PM 95.0 °F 109.7 °F 77.0 °F 56% 29.39 in 3.1 mi SSE 4.6 mph - N/A   Smoke
3:55 PM 95.0 °F 109.7 °F 77.0 °F 56% 29.39 in 3.1 mi South 4.6 mph - N/A   Smoke
4:25 PM 93.2 °F 110.2 °F 78.8 °F 63% 29.39 in 3.1 mi South 5.8 mph - N/A   Smoke
4:55 PM 93.2 °F 110.2 °F 78.8 °F 63% 29.36 in 3.1 mi SSE 6.9 mph - N/A   Smoke
5:25 PM 93.2 °F 110.2 °F 78.8 °F 63% 29.36 in 3.1 mi South 4.6 mph - N/A   Smoke
5:55 PM 93.2 °F 110.2 °F 78.8 °F 63% 29.36 in 3.1 mi SE 5.8 mph - N/A   Smoke
6:25 PM 91.4 °F 105.1 °F 77.0 °F 63% 29.36 in 3.1 mi SSE 6.9 mph - N/A   Smoke
6:55 PM 91.4 °F 107.2 °F 78.8 °F 66% 29.36 in 3.1 mi SSE 5.8 mph - N/A   Smoke
7:25 PM 91.4 °F 107.2 °F 78.8 °F 66% 29.36 in 3.1 mi SE 6.9 mph - N/A   Smoke
7:55 PM 89.6 °F 104.7 °F 78.8 °F 70% 29.36 in 3.1 mi SE 6.9 mph - N/A   Smoke
8:25 PM 89.6 °F 104.7 °F 78.8 °F 70% 29.36 in 3.1 mi SE 6.9 mph - N/A   Smoke
8:55 PM 87.8 °F 99.7 °F 77.0 °F 70% 29.36 in 3.1 mi SE 5.8 mph - N/A   Smoke
9:25 PM 87.8 °F 99.7 °F 77.0 °F 70% 29.42 in 3.1 mi SE 5.8 mph - N/A   Smoke
9:55 PM 86.0 °F 96.9 °F 77.0 °F 74% 29.36 in 3.1 mi SE 5.8 mph - N/A   Smoke
10:30 PM 86.0 °F 96.9 °F 77.0 °F 74% 29.36 in 3.1 mi ESE 4.6 mph - N/A   Smoke
10:59 PM 86.0 °F 96.9 °F 77.0 °F 74% 29.36 in 3.1 mi SE 4.6 mph - N/A   Smoke
11:30 PM 86.0 °F 96.9 °F 77.0 °F 74% 29.36 in 3.1 mi SE 5.8 mph - N/A   Smoke
11:55 PM - - 77.0 °F N/A% 29.36 in 3.1 mi SSE 4.6 mph - N/A   Smoke